Regional Weather Roundup
Issued by NWS

Home | Current Version | Previous Version | Text Only | Print | Product List | Glossary On
Versions: 1 2 3 4 5 6 7 8 9 10 11 12 13 14 15 16 17 18 19 20 21 22 23 24 25 26 27 28 29 30 31 32 33 34 35 36 37 38 39 40 41 42 43 44 45 46 47 48 49 50
000
ASCA42 TJSJ 282110
RWRPR
PUERTO RICO/U.S. VIRGIN ISLANDS HOURLY WEATHER ROUNDUP
NATIONAL WEATHER SERVICE SAN JUAN PR
500 PM AST SAT FEB 28 2015

PRZ001-004-282200-
PUERTO RICO

CITY           SKY/WX    TMP DP  RH WIND       PRES   REMARKS
SAN JUAN LMM   PTSUNNY   79  73  83 E17       30.09R
MAYAGUEZ       PTSUNNY   82  70  65 E7        30.09
CEIBA          CLOUDY    75 N/A N/A NE12      30.11R
$$

PRZ006-007-282200-
U.S. VIRGIN ISLANDS

CITY           SKY/WX    TMP DP  RH WIND       PRES   REMARKS
$$

HOURLY WEATHER ROUNDUP FOR THE NEWS MEDIA

CITY           SKY/WX    TMP DP  RH WIND       PRES   REMARKS
ORLANDO        LGT RAIN  66  63  90 E10       30.31S FOG
NEW YORK       MOSUNNY   29   4  34 W9        30.76F WCI  20
NEWARK         MOSUNNY   30   0  27 W3        30.74F
CHICAGO        MOSUNNY   20   0  41 SE8       30.57F WCI  10
HARTFORD       SUNNY     28   1  31 W9        30.68F WCI  19
BOSTON         SUNNY     30   2  30 SW6       30.68S WCI  24
DALLAS         FRZ RAIN  32  28  86 NE6       30.31F FOG     WCI  26
PHILADELPHIA   MOSUNNY   31  -5  21 CALM      30.77F
LOS ANGELES    PTSUNNY   61  46  57 SW16      29.86F
WASHINGTON DC  MOSUNNY   29  -3  25 CALM      30.76S



USA.gov is the U.S. government's official web portal to all federal, state and local government web resources and services.